FW3881 Weather Reports


time (UTC)temp
C
wind
direction
speed
KPH
gust
KPH
rain 1hr
cm
rain 24hr
cm
rain mn
cm
humidity
%
barometer
mb
20260504100546 7 235 0.0 0.0 0.00 0.00 0.00 59 1015.0
20260504081728 8 216 0.0 0.0 0.00 0.00 0.00 62 1015.3
20260504080932 7 216 0.0 0.0 0.00 0.00 0.00 63 1015.3
20260504080431 7 216 0.0 0.0 0.00 0.00 0.00 60 1015.3
20260504080132 7 216 0.0 0.0 0.00 0.00 0.00 60 1015.4
20260504070147 6 216 0.0 0.0 0.00 0.00 0.00 61 1015.4
20260504050634 6 224 0.0 0.0 0.00 0.00 0.00 62 1015.8
20260504045903 6 224 0.0 0.0 0.00 0.00 0.00 62 1015.8
20260504045123 6 224 0.0 0.0 0.00 0.00 0.00 63 1015.8
20260504044550 6 224 0.0 0.0 0.00 0.00 0.00 62 1015.8
20260504044025 6 224 0.0 0.0 0.00 0.00 0.00 64 1015.8
20260504043502 6 224 0.0 0.0 0.00 0.00 0.00 63 1015.9
20260504043002 6 224 0.0 0.0 0.00 0.00 0.00 64 1015.8
20260504042651 6 224 0.0 0.0 0.00 0.00 0.00 63 1015.8
20260504042535 6 224 0.0 0.0 0.00 0.00 0.00 64 1015.8
20260504041444 6 224 0.0 0.0 0.00 0.00 0.00 60 1015.8
20260504040926 6 224 0.0 0.0 0.00 0.00 0.00 59 1015.8
20260504040644 7 224 0.0 0.0 0.00 0.00 0.00 61 1015.8
20260504035918 7 224 0.0 0.0 0.00 0.00 0.00 61 1015.7
20260504035345 7 224 0.0 0.0 0.00 0.00 0.00 59 1015.7
20260504034846 7 224 0.0 0.0 0.00 0.00 0.00 60 1015.6
20260504034603 7 224 0.0 0.0 0.00 0.00 0.00 60 1015.7
20260504033849 7 224 0.0 0.0 0.00 0.00 0.00 59 1015.7
20260504033325 6 224 0.0 0.0 0.00 0.00 0.00 59 1015.7
20260504032818 6 224 0.0 0.0 0.00 0.00 0.00 59 1015.7
20260504032506 6 224 0.0 0.0 0.00 0.00 0.00 60 1015.7
20260504031723 6 224 0.0 0.0 0.00 0.00 0.00 59 1015.7
20260504031155 7 224 0.0 0.0 0.00 0.00 0.00 61 1015.7
20260504030653 7 224 0.0 0.0 0.00 0.00 0.00 60 1015.6
20260504030125 7 224 0.0 0.0 0.00 0.00 0.00 57 1015.7
20260504025625 7 102 0.0 0.0 0.00 0.00 0.00 59 1015.8
20260504025054 7 102 0.0 0.0 0.00 0.00 0.00 58 1015.8
20260504024554 7 102 0.0 0.0 0.00 0.00 0.00 59 1015.7
20260504024309 7 102 0.0 0.0 0.00 0.00 0.00 57 1015.8
20260504023548 7 102 0.0 0.0 0.00 0.00 0.00 57 1015.7
20260504023020 7 102 0.0 0.0 0.00 0.00 0.00 56 1015.8
20260504022517 7 102 0.0 0.0 0.00 0.00 0.00 57 1015.7
20260504021949 7 102 0.0 0.0 0.00 0.00 0.00 56 1015.7
20260504021444 7 102 0.0 0.0 0.00 0.00 0.00 59 1015.7
20260504020943 7 102 0.0 0.0 0.00 0.00 0.00 58 1015.6
20260504020438 7 102 0.0 0.0 0.00 0.00 0.00 57 1015.7
20260504015930 7 102 0.0 0.0 0.00 0.00 0.00 60 1015.6
20260504015403 7 102 0.0 0.0 0.00 0.00 0.00 59 1015.6
20260504014848 7 102 0.0 0.0 0.00 0.00 0.00 59 1015.5
20260504014349 7 102 0.0 0.0 0.00 0.00 0.00 60 1015.5
20260504013818 7 102 0.0 0.0 0.00 0.00 0.00 59 1015.5
20260504013317 7 102 0.0 0.0 0.00 0.00 0.00 58 1015.5
20260504013011 7 102 0.0 0.0 0.00 0.00 0.00 59 1015.3
20260504012505 7 102 0.0 0.0 0.00 0.00 0.00 59 1015.3
20260504012040 7 102 0.0 0.0 0.00 0.00 0.00 58 1015.3
20260504011949 7 102 0.0 0.0 0.00 0.00 0.00 59 1015.2
20260504010734 7 102 0.0 0.0 0.00 0.00 0.00 58 1015.2
20260504010429 8 102 0.0 0.0 0.00 0.00 0.00 55 1015.2
20260504005638 8 102 0.0 0.0 0.00 0.00 0.00 56 1015.3
20260504005138 8 102 0.0 0.0 0.00 0.00 0.00 53 1015.2
20260504004609 8 102 0.0 0.0 0.00 0.00 0.00 56 1015.2
20260504004330 8 104 0.0 0.0 0.00 0.00 0.00 54 1015.2
20260504003823 8 103 0.0 0.0 0.00 0.00 0.00 53 1015.2
20260504003103 8 210 0.0 0.0 0.00 0.00 0.00 54 1015.2
20260504002543 8 210 0.0 0.0 0.00 0.00 0.00 54 1015.1
20260504002045 8 202 0.0 0.0 0.00 0.00 0.00 53 1015.1
20260504001542 8 202 0.0 0.0 0.00 0.00 0.00 53 1015.0
20260504001045 9 235 0.0 0.0 0.00 0.00 0.00 53 1014.9
20260504000515 9 235 0.0 0.0 0.00 0.00 0.00 51 1014.9
20260504000454 9 237 0.0 0.0 0.00 0.00 0.00 50 1014.9
20260503235446 10 237 0.0 0.0 0.00 0.00 0.00 49 1014.9
20260503234921 10 237 1.6 4.8 0.00 0.00 0.00 50 1014.8
20260503234358 10 191 1.6 4.8 0.00 0.00 0.00 50 1014.8
20260503233857 10 277 1.6 8.0 0.00 0.00 0.00 47 1014.7
20260503233357 11 197 0.0 8.0 0.00 0.00 0.00 44 1014.5
20260503232843 11 172 0.0 1.6 0.00 0.00 0.00 46 1014.5
20260503232317 11 120 0.0 0.0 0.00 0.00 0.00 44 1014.5
20260503231748 11 270 0.0 8.0 0.00 0.00 0.00 44 1014.7
20260503231245 11 168 0.0 8.0 0.00 0.00 0.00 42 1014.5
20260503230723 11 38 0.0 4.8 0.00 0.00 0.00 42 1014.3
20260503230151 11 190 1.6 4.8 0.00 0.00 0.00 43 1014.4
20260503225646 11 177 1.6 12.9 0.00 0.00 0.00 41 1014.3
20260503225121 12 93 1.6 4.8 0.00 0.00 0.00 41 1014.3
20260503224611 12 324 1.6 9.7 0.00 0.00 0.00 41 1014.3
20260503224043 12 77 1.6 9.7 0.00 0.00 0.00 40 1014.3
20260503223538 12 327 1.6 6.4 0.00 0.00 0.00 40 1014.3
20260503223013 12 158 1.6 11.3 0.00 0.00 0.00 39 1014.4
20260503222510 12 250 1.6 11.3 0.00 0.00 0.00 40 1014.5
20260503222009 12 256 1.6 14.5 0.00 0.00 0.00 40 1014.4
20260503221440 12 300 1.6 14.5 0.00 0.00 0.00 39 1014.4
20260503220939 12 183 1.6 8.0 0.00 0.00 0.00 40 1014.4
20260503220435 12 196 3.2 14.5 0.00 0.00 0.00 41 1014.4
20260503220416 12 356 4.8 14.5 0.00 0.00 0.00 40 1014.5
20260503215404 12 216 3.2 11.3 0.00 0.00 0.00 38 1014.5
20260503215128 12 182 1.6 11.3 0.00 0.00 0.00 41 1014.4
20260503214336 12 105 1.6 8.0 0.00 0.00 0.00 40 1014.5
20260503213812 12 268 3.2 20.9 0.00 0.00 0.00 40 1014.7
20260503213252 12 86 3.2 20.9 0.00 0.00 0.00 39 1014.4
20260503212751 12 78 1.6 9.7 0.00 0.00 0.00 39 1014.5
20260503212222 12 104 1.6 9.7 0.00 0.00 0.00 39 1014.5
20260503211943 13 1 1.6 9.7 0.00 0.00 0.00 38 1014.4
20260503211200 13 160 1.6 11.3 0.00 0.00 0.00 40 1014.4
20260503210844 13 310 3.2 12.9 0.00 0.00 0.00 38 1014.4
20260503210056 13 74 4.8 12.9 0.00 0.00 0.00 42 1014.3
20260503205819 13 165 3.2 16.1 0.00 0.00 0.00 37 1014.3
20260503205024 13 171 3.2 16.1 0.00 0.00 0.00 36 1014.4
20260503204527 13 232 4.8 16.1 0.00 0.00 0.00 38 1014.3
20260503203954 13 15 3.2 12.9 0.00 0.00 0.00 40 1014.3
20260503203453 13 176 3.2 11.3 0.00 0.00 0.00 38 1014.4
20260503202925 13 32 1.6 6.4 0.00 0.00 0.00 38 1014.5
20260503202401 13 24 3.2 11.3 0.00 0.00 0.00 38 1014.7
20260503202059 13 102 1.6 11.3 0.00 0.00 0.00 36 1014.7
20260503201337 13 177 3.2 9.7 0.00 0.00 0.00 36 1014.5
20260503201035 13 125 3.2 12.9 0.00 0.00 0.00 40 1014.8
20260503200258 13 217 4.8 12.9 0.00 0.00 0.00 40 1014.8
20260503195756 13 356 3.2 12.9 0.00 0.00 0.00 35 1014.9
20260503195253 13 242 1.6 9.7 0.00 0.00 0.00 38 1014.9
20260503194751 13 41 3.2 8.0 0.00 0.00 0.00 37 1015.1
20260503194446 12 292 3.2 14.5 0.00 0.00 0.00 38 1015.1
20260503193948 13 140 3.2 14.5 0.00 0.00 0.00 42 1015.1
20260503193217 13 67 3.2 9.7 0.00 0.00 0.00 40 1015.1
20260503192714 13 91 1.6 11.3 0.00 0.00 0.00 41 1015.2
20260503192213 13 69 3.2 11.3 0.00 0.00 0.00 39 1015.3
20260503192201 13 93 3.2 22.5 0.00 0.00 0.00 37 1015.4
20260503191652 13 76 3.2 22.5 0.00 0.00 0.00 41 1015.3
20260503190705 13 75 4.8 22.5 0.00 0.00 0.00 38 1015.4
20260503190142 13 302 4.8 22.5 0.00 0.00 0.00 37 1015.4
20260503190058 13 351 4.8 20.9 0.00 0.00 0.00 38 1015.4
20260503185052 12 10 4.8 20.9 0.00 0.00 0.00 37 1015.5
20260503184538 12 167 3.2 11.3 0.00 0.00 0.00 37 1015.5
20260503184038 12 60 3.2 11.3 0.00 0.00 0.00 35 1015.5
20260503183512 12 190 3.2 17.7 0.00 0.00 0.00 36 1015.7
20260503183205 13 173 3.2 17.7 0.00 0.00 0.00 38 1015.7
20260503182709 12 171 1.6 12.9 0.00 0.00 0.00 40 1015.7
20260503181923 12 319 3.2 12.9 0.00 0.00 0.00 36 1015.6
20260503181421 12 52 3.2 9.7 0.00 0.00 0.00 40 1015.7
20260503180919 11 57 3.2 14.5 0.00 0.00 0.00 40 1015.7
20260503180354 11 21 3.2 14.5 0.00 0.00 0.00 45 1015.7
20260503175826 10 69 3.2 11.3 0.00 0.00 0.00 43 1015.9
20260503175321 10 5 3.2 12.9 0.00 0.00 0.00 41 1015.8
20260503175254 11 291 1.6 12.9 0.00 0.00 0.00 41 1015.8
20260503174521 11 275 3.2 14.5 0.00 0.00 0.00 42 1016.0
20260503173803 12 327 4.8 14.5 0.00 0.00 0.00 40 1016.0
20260503173305 11 264 4.8 16.1 0.00 0.00 0.00 43 1015.8
20260503172758 11 270 4.8 16.1 0.00 0.00 0.00 40 1015.9
20260503172300 11 250 4.8 14.5 0.00 0.00 0.00 43 1016.0
20260503171759 11 224 4.8 12.9 0.00 0.00 0.00 40 1016.0
20260503171300 11 37 3.2 11.3 0.00 0.00 0.00 44 1015.9
20260503170810 11 106 3.2 16.1 0.00 0.00 0.00 46 1016.0
20260503170241 10 21 3.2 16.1 0.00 0.00 0.00 45 1016.0
20260503150315 8 305 1.6 6.4 0.00 0.00 0.00 52 1016.9
20260503140106 7 304 3.2 8.0 0.00 0.00 0.00 59 1016.8
20260503131318 6 325 1.6 11.3 0.00 0.00 0.00 63 1016.7
20260503130753 5 78 1.6 11.3 0.00 0.00 0.00 63 1016.8
20260503130223 5 5 1.6 8.0 0.00 0.00 0.00 63 1016.8
20260503110747 1 129 0.0 4.8 0.00 0.00 0.00 78 1015.7
20260503110223 0 25 0.0 6.4 0.00 0.00 0.00 79 1015.5